Location: Kawakawa
(35.3830°S, 174.0670°E)
Time: 17:53:35
(UTC+13:00)

SL-16 R/B - Pass Details

Date: 24 January 2019
Orbit: 842 x 846 km, 71.0° (Epoch: 22 February)

Event Time Altitude Azimuth Distance (km) Brightness Sun altitude
Rises 22:36:18 0° 317° (NW) 3,398 5.3 -20.8°
Reaches altitude 10° 22:38:55 10° 308° (NW) 2,470 4.7 -21.2°
Maximum altitude 22:44:06 36° 242° (WSW) 1,323 3.7 -21.9°
Drops below altitude 10° 22:49:22 10° 176° (S) 2,493 5.2 -22.6°
Sets 22:52:02 0° 167° (SSE) 3,434 5.8 -23.0°
